| time (UTC) | temp F | wind direction | speed knots | gust knots | rain 1hr in | rain 24hr in | rain mn in | humidity % | barometer mb |
| 20260506232547 | 65 | 0 | 0.0 | 1.7 | 0.00 | 0.00 | 0.00 | 79 | 1012.9 |
| 20260506232048 | 65 | 91 | 0.0 | 1.7 | 0.00 | 0.00 | 0.00 | 78 | 1012.9 |
| 20260506231555 | 65 | 91 | 0.0 | 1.7 | 0.00 | 0.00 | 0.00 | 78 | 1012.9 |
| 20260506231048 | 66 | 91 | 0.0 | 1.7 | 0.00 | 0.00 | 0.00 | 78 | 1012.7 |
| 20260506230547 | 66 | 91 | 0.0 | 1.7 | 0.00 | 0.00 | 0.00 | 78 | 1012.9 |
| 20260506230059 | 66 | 0 | 0.0 | 1.7 | 0.00 | 0.00 | 0.00 | 77 | 1012.8 |
| 20260506225548 | 66 | 91 | 0.0 | 1.7 | 0.00 | 0.00 | 0.00 | 77 | 1012.8 |
| 20260506225047 | 66 | 91 | 0.0 | 1.7 | 0.00 | 0.00 | 0.00 | 78 | 1012.7 |
| 20260506224551 | 66 | 0 | 0.0 | 1.7 | 0.00 | 0.00 | 0.00 | 77 | 1012.6 |
| 20260506224047 | 66 | 0 | 0.0 | 1.7 | 0.00 | 0.00 | 0.00 | 78 | 1012.7 |
| 20260506223548 | 67 | 0 | 0.0 | 1.7 | 0.00 | 0.00 | 0.00 | 77 | 1012.7 |
| 20260506223051 | 67 | 91 | 0.0 | 1.7 | 0.00 | 0.00 | 0.00 | 76 | 1012.5 |
| 20260506222552 | 67 | 0 | 0.0 | 1.7 | 0.00 | 0.00 | 0.00 | 75 | 1012.4 |
| 20260506222048 | 67 | 0 | 0.0 | 1.7 | 0.00 | 0.00 | 0.00 | 76 | 1012.4 |
| 20260506221550 | 68 | 0 | 0.0 | 3.5 | 0.00 | 0.00 | 0.00 | 75 | 1012.5 |
| 20260506221050 | 68 | 0 | 0.0 | 3.5 | 0.00 | 0.00 | 0.00 | 75 | 1012.5 |
| 20260506220548 | 68 | 122 | 0.0 | 1.7 | 0.00 | 0.00 | 0.00 | 76 | 1012.6 |
| 20260506220054 | 69 | 0 | 0.0 | 2.6 | 0.00 | 0.00 | 0.00 | 75 | 1012.7 |
| 20260506215547 | 69 | 0 | 0.0 | 2.6 | 0.00 | 0.00 | 0.00 | 73 | 1012.6 |
| 20260506215048 | 69 | 0 | 0.0 | 3.5 | 0.00 | 0.00 | 0.00 | 72 | 1012.5 |
| 20260506214551 | 70 | 0 | 0.9 | 3.5 | 0.00 | 0.00 | 0.00 | 73 | 1012.4 |
| 20260506214049 | 70 | 114 | 0.0 | 2.6 | 0.00 | 0.00 | 0.00 | 73 | 1012.3 |
| 20260506213548 | 70 | 95 | 0.0 | 2.6 | 0.00 | 0.00 | 0.00 | 73 | 1012.2 |
| 20260506213055 | 70 | 95 | 0.0 | 2.6 | 0.00 | 0.00 | 0.00 | 73 | 1012.2 |
| 20260506212548 | 71 | 51 | 0.0 | 3.5 | 0.00 | 0.00 | 0.00 | 72 | 1012.2 |
| 20260506212048 | 71 | 0 | 0.9 | 3.5 | 0.00 | 0.00 | 0.00 | 72 | 1012.3 |
| 20260506211554 | 71 | 0 | 0.0 | 3.5 | 0.00 | 0.00 | 0.00 | 73 | 1012.2 |
| 20260506211048 | 72 | 142 | 0.0 | 2.6 | 0.00 | 0.00 | 0.00 | 72 | 1012.3 |
| 20260506210548 | 73 | 0 | 0.0 | 3.5 | 0.00 | 0.00 | 0.00 | 72 | 1012.2 |
| 20260506210052 | 73 | 140 | 0.9 | 2.6 | 0.00 | 0.00 | 0.00 | 71 | 1012.3 |
| 20260506205548 | 74 | 90 | 0.0 | 2.6 | 0.00 | 0.00 | 0.00 | 72 | 1012.2 |
| 20260506205048 | 74 | 0 | 0.0 | 2.6 | 0.00 | 0.00 | 0.00 | 74 | 1012.3 |
| 20260506204553 | 73 | 86 | 0.9 | 2.6 | 0.00 | 0.00 | 0.00 | 73 | 1012.4 |
| 20260506204047 | 73 | 79 | 0.0 | 1.7 | 0.00 | 0.00 | 0.00 | 73 | 1012.5 |
| 20260506203547 | 73 | 0 | 0.0 | 3.5 | 0.00 | 0.00 | 0.00 | 74 | 1012.5 |
| 20260506203049 | 73 | 20 | 0.0 | 2.6 | 0.00 | 0.00 | 0.00 | 75 | 1012.4 |
| 20260506202634 | 73 | 13 | 0.0 | 2.6 | 0.00 | 0.00 | 0.00 | 76 | 1012.3 |
| 20260506202046 | 73 | 0 | 0.0 | 3.5 | 0.00 | 0.00 | 0.00 | 74 | 1012.4 |
| 20260506201556 | 73 | 83 | 0.9 | 2.6 | 0.00 | 0.00 | 0.00 | 73 | 1012.2 |
| 20260506201046 | 74 | 148 | 0.9 | 2.6 | 0.00 | 0.00 | 0.00 | 75 | 1012.3 |
| 20260506200545 | 74 | 0 | 0.0 | 1.7 | 0.00 | 0.00 | 0.00 | 75 | 1012.1 |
| 20260506200059 | 74 | 0 | 0.0 | 3.5 | 0.00 | 0.00 | 0.00 | 74 | 1012.1 |
| 20260506195546 | 75 | 0 | 0.0 | 3.5 | 0.00 | 0.00 | 0.00 | 74 | 1012.1 |
| 20260506195045 | 76 | 43 | 0.0 | 3.5 | 0.00 | 0.00 | 0.00 | 73 | 1011.9 |
| 20260506194556 | 76 | 103 | 0.9 | 2.6 | 0.00 | 0.00 | 0.00 | 72 | 1011.8 |
| 20260506194045 | 77 | 103 | 0.0 | 1.7 | 0.00 | 0.00 | 0.00 | 75 | 1011.6 |
| 20260506193550 | 78 | 0 | 0.0 | 1.7 | 0.00 | 0.00 | 0.00 | 74 | 1011.5 |
| 20260506193054 | 78 | 0 | 0.0 | 1.7 | 0.00 | 0.00 | 0.00 | 75 | 1011.6 |
| 20260506192544 | 78 | 103 | 0.0 | 1.7 | 0.00 | 0.00 | 0.00 | 75 | 1011.5 |
| 20260506192045 | 78 | 0 | 0.0 | 1.7 | 0.00 | 0.00 | 0.00 | 75 | 1011.5 |
| 20260506191552 | 78 | 0 | 0.0 | 1.7 | 0.00 | 0.00 | 0.00 | 76 | 1011.6 |
| 20260506191045 | 78 | 0 | 0.0 | 1.7 | 0.00 | 0.00 | 0.00 | 76 | 1011.7 |
| 20260506190545 | 78 | 0 | 0.0 | 1.7 | 0.00 | 0.00 | 0.00 | 77 | 1011.8 |
| 20260506190058 | 78 | 0 | 0.0 | 1.7 | 0.00 | 0.00 | 0.00 | 76 | 1011.9 |
| 20260506185545 | 77 | 0 | 0.0 | 2.6 | 0.00 | 0.00 | 0.00 | 77 | 1011.9 |
| 20260506185045 | 77 | 0 | 0.0 | 2.6 | 0.00 | 0.00 | 0.00 | 77 | 1011.9 |
| 20260506184554 | 77 | 103 | 0.0 | 2.6 | 0.00 | 0.00 | 0.00 | 80 | 1011.8 |
| 20260506184045 | 76 | 0 | 0.9 | 2.6 | 0.00 | 0.00 | 0.00 | 81 | 1011.8 |
| 20260506183549 | 76 | 0 | 0.0 | 1.7 | 0.00 | 0.00 | 0.00 | 78 | 1011.8 |
| 20260506183054 | 75 | 0 | 0.0 | 1.7 | 0.00 | 0.00 | 0.00 | 81 | 1011.8 |
| 20260506182545 | 75 | 103 | 0.0 | 1.7 | 0.00 | 0.00 | 0.00 | 82 | 1012.0 |
| 20260506182045 | 74 | 0 | 0.0 | 2.6 | 0.00 | 0.00 | 0.00 | 80 | 1012.0 |
| 20260506181559 | 74 | 0 | 0.0 | 2.6 | 0.00 | 0.00 | 0.00 | 81 | 1012.0 |
| 20260506181045 | 74 | 103 | 0.0 | 2.6 | 0.00 | 0.00 | 0.00 | 82 | 1011.9 |
| 20260506180545 | 73 | 0 | 0.0 | 2.6 | 0.00 | 0.00 | 0.00 | 83 | 1011.9 |
| 20260506180051 | 73 | 0 | 0.0 | 2.6 | 0.00 | 0.00 | 0.00 | 83 | 1011.9 |
| 20260506175545 | 72 | 0 | 0.0 | 2.6 | 0.00 | 0.00 | 0.00 | 82 | 1011.8 |
| 20260506175045 | 72 | 103 | 0.9 | 2.6 | 0.00 | 0.00 | 0.00 | 85 | 1011.8 |
| 20260506174557 | 72 | 0 | 0.9 | 2.6 | 0.00 | 0.00 | 0.00 | 85 | 1011.9 |
| 20260506174045 | 71 | 0 | 0.0 | 2.6 | 0.00 | 0.00 | 0.00 | 89 | 1011.9 |
| 20260506173545 | 70 | 103 | 0.0 | 2.6 | 0.00 | 0.00 | 0.00 | 87 | 1012.0 |
| 20260506173124 | 70 | 103 | 0.9 | 2.6 | 0.00 | 0.00 | 0.00 | 89 | 1012.2 |
| 20260506172546 | 69 | 0 | 0.9 | 2.6 | 0.00 | 0.00 | 0.00 | 90 | 1012.2 |
| 20260506172047 | 69 | 0 | 0.0 | 1.7 | 0.00 | 0.00 | 0.00 | 92 | 1012.1 |
| 20260506171547 | 68 | 103 | 0.0 | 2.6 | 0.00 | 0.00 | 0.00 | 91 | 1012.2 |
| 20260506171045 | 67 | 0 | 0.0 | 2.6 | 0.00 | 0.00 | 0.00 | 90 | 1012.1 |
| 20260506170544 | 67 | 103 | 0.0 | 1.7 | 0.00 | 0.00 | 0.00 | 92 | 1012.3 |
| 20260506170052 | 67 | 0 | 0.0 | 1.7 | 0.00 | 0.00 | 0.00 | 92 | 1012.2 |
| 20260506165544 | 67 | 103 | 0.0 | 1.7 | 0.00 | 0.00 | 0.00 | 93 | 1012.5 |
| 20260506165045 | 66 | 0 | 0.0 | 1.7 | 0.00 | 0.00 | 0.00 | 93 | 1012.6 |
| 20260506164556 | 66 | 0 | 0.0 | 1.7 | 0.00 | 0.00 | 0.00 | 92 | 1012.7 |
| 20260506164045 | 66 | 0 | 0.0 | 1.7 | 0.00 | 0.00 | 0.00 | 90 | 1012.7 |
| 20260506163545 | 66 | 0 | 0.0 | 3.5 | 0.00 | 0.00 | 0.00 | 88 | 1012.8 |
| 20260506163106 | 66 | 0 | 0.0 | 2.6 | 0.00 | 0.00 | 0.00 | 87 | 1013.1 |
| 20260506162545 | 67 | 0 | 0.9 | 5.2 | 0.00 | 0.00 | 0.00 | 87 | 1013.4 |
| 20260506162047 | 67 | 0 | 0.0 | 5.2 | 0.00 | 0.00 | 0.00 | 86 | 1013.5 |
| 20260506161622 | 68 | 0 | 0.9 | 3.5 | 0.00 | 0.00 | 0.00 | 86 | 1013.5 |
| 20260506161044 | 69 | 96 | 0.9 | 2.6 | 0.00 | 0.00 | 0.00 | 86 | 1013.5 |
| 20260506160545 | 69 | 0 | 0.9 | 2.6 | 0.00 | 0.00 | 0.00 | 86 | 1013.1 |
| 20260506160051 | 70 | 0 | 0.0 | 4.3 | 0.00 | 0.00 | 0.00 | 85 | 1013.0 |
| 20260506155544 | 71 | 141 | 0.9 | 3.5 | 0.00 | 0.00 | 0.00 | 83 | 1013.1 |
| 20260506155044 | 72 | 119 | 0.9 | 3.5 | 0.00 | 0.00 | 0.00 | 82 | 1013.0 |
| 20260506154600 | 74 | 183 | 0.0 | 3.5 | 0.00 | 0.00 | 0.00 | 82 | 1012.9 |
| 20260506154045 | 75 | 0 | 0.9 | 3.5 | 0.00 | 0.00 | 0.00 | 80 | 1012.5 |
| 20260506153546 | 77 | 149 | 0.9 | 3.5 | 0.00 | 0.00 | 0.00 | 86 | 1012.5 |
| 20260506153059 | 77 | 0 | 0.0 | 0.0 | 0.00 | 0.00 | 0.00 | 89 | 1012.0 |
| 20260506152545 | 77 | 0 | 0.0 | 0.0 | 0.00 | 0.00 | 0.00 | 89 | 1011.9 |
| 20260506152045 | 77 | 0 | 0.0 | 0.0 | 0.00 | 0.00 | 0.00 | 89 | 1011.6 |
| 20260506151555 | 77 | 0 | 0.0 | 0.0 | 0.00 | 0.00 | 0.00 | 89 | 1011.4 |
| 20260506151045 | 77 | 0 | 0.0 | 0.0 | 0.00 | 0.00 | 0.00 | 89 | 1011.6 |
| 20260506150548 | 77 | 0 | 0.0 | 0.0 | 0.00 | 0.00 | 0.00 | 89 | 1011.5 |
| 20260506150052 | 77 | 0 | 0.0 | 0.0 | 0.00 | 0.00 | 0.00 | 89 | 1011.5 |
| 20260506145545 | 77 | 0 | 0.0 | 0.0 | 0.00 | 0.00 | 0.00 | 89 | 1011.1 |
| 20260506145044 | 77 | 0 | 0.0 | 2.6 | 0.00 | 0.00 | 0.00 | 89 | 1011.0 |
| 20260506144552 | 77 | 0 | 0.0 | 2.6 | 0.00 | 0.00 | 0.00 | 89 | 1010.7 |
| 20260506144044 | 77 | 0 | 0.0 | 0.0 | 0.00 | 0.00 | 0.00 | 89 | 1010.8 |
| 20260506143545 | 77 | 0 | 0.0 | 2.6 | 0.00 | 0.00 | 0.00 | 89 | 1010.8 |
| 20260506143101 | 77 | 0 | 0.0 | 2.6 | 0.00 | 0.00 | 0.00 | 89 | 1010.6 |
| 20260506142545 | 77 | 24 | 0.0 | 2.6 | 0.00 | 0.00 | 0.00 | 90 | 1010.6 |
| 20260506142045 | 77 | 0 | 0.0 | 2.6 | 0.00 | 0.00 | 0.00 | 91 | 1010.3 |
| 20260506141548 | 76 | 0 | 0.0 | 0.9 | 0.00 | 0.00 | 0.00 | 91 | 1010.3 |
| 20260506141048 | 76 | 0 | 0.0 | 0.9 | 0.00 | 0.00 | 0.00 | 91 | 1010.5 |
| 20260506140548 | 76 | 0 | 0.0 | 0.9 | 0.00 | 0.00 | 0.00 | 91 | 1010.8 |
| 20260506140049 | 76 | 0 | 0.0 | 0.0 | 0.00 | 0.00 | 0.00 | 91 | 1010.7 |
| 20260506135546 | 76 | 0 | 0.0 | 0.0 | 0.00 | 0.00 | 0.00 | 91 | 1010.6 |
| 20260506135048 | 76 | 0 | 0.0 | 0.9 | 0.00 | 0.00 | 0.00 | 92 | 1010.4 |
| 20260506134552 | 76 | 0 | 0.0 | 1.7 | 0.00 | 0.00 | 0.00 | 91 | 1010.1 |
| 20260506134048 | 76 | 0 | 0.0 | 1.7 | 0.00 | 0.00 | 0.00 | 91 | 1010.1 |
| 20260506133548 | 76 | 0 | 0.0 | 0.0 | 0.00 | 0.00 | 0.00 | 91 | 1010.1 |
| 20260506133046 | 76 | 0 | 0.0 | 1.7 | 0.00 | 0.00 | 0.00 | 91 | 1010.0 |
| 20260506132547 | 75 | 0 | 0.0 | 1.7 | 0.00 | 0.00 | 0.00 | 91 | 1010.0 |
| 20260506132047 | 75 | 24 | 0.0 | 1.7 | 0.00 | 0.00 | 0.00 | 92 | 1010.0 |
| 20260506131551 | 75 | 0 | 0.0 | 0.9 | 0.00 | 0.00 | 0.00 | 92 | 1010.0 |
| 20260506131047 | 75 | 0 | 0.0 | 1.7 | 0.00 | 0.00 | 0.00 | 92 | 1010.0 |
| 20260506130547 | 75 | 0 | 0.0 | 1.7 | 0.00 | 0.00 | 0.00 | 92 | 1009.9 |
| 20260506125548 | 75 | 0 | 0.0 | 0.9 | 0.00 | 0.00 | 0.00 | 92 | 1009.7 |
| 20260506125047 | 75 | 0 | 0.0 | 0.9 | 0.00 | 0.00 | 0.00 | 92 | 1009.7 |
| 20260506124557 | 75 | 0 | 0.0 | 0.9 | 0.00 | 0.00 | 0.00 | 92 | 1009.7 |
| 20260506124048 | 75 | 0 | 0.0 | 0.0 | 0.00 | 0.00 | 0.00 | 92 | 1009.7 |
| 20260506123548 | 75 | 0 | 0.0 | 0.0 | 0.00 | 0.00 | 0.00 | 92 | 1009.7 |
| 20260506123051 | 75 | 0 | 0.0 | 0.9 | 0.00 | 0.00 | 0.00 | 92 | 1009.7 |
| 20260506122550 | 75 | 0 | 0.0 | 0.9 | 0.00 | 0.00 | 0.00 | 92 | 1009.8 |
| 20260506122047 | 75 | 0 | 0.0 | 0.9 | 0.00 | 0.00 | 0.00 | 92 | 1009.7 |
| 20260506121547 | 75 | 0 | 0.0 | 0.0 | 0.00 | 0.00 | 0.00 | 92 | 1009.8 |
| 20260506121047 | 75 | 0 | 0.0 | 0.0 | 0.00 | 0.00 | 0.00 | 92 | 1009.8 |
| 20260506120550 | 75 | 0 | 0.0 | 0.0 | 0.00 | 0.00 | 0.00 | 92 | 1009.7 |
| 20260506120049 | 75 | 0 | 0.0 | 0.0 | 0.00 | 0.00 | 0.00 | 92 | 1009.6 |
| 20260506115547 | 75 | 0 | 0.0 | 0.0 | 0.00 | 0.00 | 0.00 | 92 | 1009.5 |
| 20260506115046 | 75 | 0 | 0.0 | 1.7 | 0.00 | 0.00 | 0.00 | 92 | 1009.5 |
| 20260506114547 | 75 | 0 | 0.0 | 1.7 | 0.00 | 0.00 | 0.00 | 92 | 1009.5 |
| 20260506114047 | 75 | 0 | 0.0 | 0.0 | 0.00 | 0.00 | 0.00 | 92 | 1009.6 |
| 20260506113547 | 75 | 0 | 0.0 | 0.0 | 0.00 | 0.00 | 0.00 | 92 | 1009.5 |
| 20260506113055 | 75 | 0 | 0.0 | 0.0 | 0.00 | 0.00 | 0.00 | 92 | 1009.7 |
| 20260506112549 | 75 | 0 | 0.0 | 0.0 | 0.00 | 0.00 | 0.00 | 91 | 1009.6 |
| 20260506112047 | 75 | 0 | 0.0 | 0.0 | 0.00 | 0.00 | 0.00 | 91 | 1009.5 |
| 20260506111552 | 75 | 0 | 0.0 | 0.0 | 0.00 | 0.00 | 0.00 | 91 | 1009.6 |
| 20260506111048 | 75 | 0 | 0.0 | 0.0 | 0.00 | 0.00 | 0.00 | 91 | 1009.7 |
| 20260506110548 | 75 | 0 | 0.0 | 0.9 | 0.00 | 0.00 | 0.00 | 91 | 1009.5 |
| 20260506110100 | 75 | 0 | 0.0 | 0.9 | 0.00 | 0.00 | 0.00 | 91 | 1009.6 |
| 20260506105548 | 75 | 0 | 0.0 | 0.9 | 0.00 | 0.00 | 0.00 | 91 | 1009.5 |
| 20260506105048 | 75 | 0 | 0.0 | 0.9 | 0.00 | 0.00 | 0.00 | 91 | 1009.4 |
| 20260506104557 | 75 | 0 | 0.0 | 0.0 | 0.00 | 0.00 | 0.00 | 91 | 1009.4 |
| 20260506104048 | 76 | 0 | 0.0 | 0.0 | 0.00 | 0.00 | 0.00 | 91 | 1009.5 |
| 20260506103548 | 76 | 0 | 0.0 | 0.0 | 0.00 | 0.00 | 0.00 | 91 | 1009.4 |
| 20260506103059 | 76 | 0 | 0.0 | 0.9 | 0.00 | 0.00 | 0.00 | 90 | 1009.3 |
| 20260506102547 | 76 | 0 | 0.0 | 1.7 | 0.00 | 0.00 | 0.00 | 90 | 1009.3 |
| 20260506102047 | 76 | 0 | 0.0 | 1.7 | 0.00 | 0.00 | 0.00 | 90 | 1009.2 |
| 20260506101608 | 75 | 0 | 0.0 | 1.7 | 0.00 | 0.00 | 0.00 | 90 | 1009.0 |
| 20260506101047 | 76 | 0 | 0.0 | 3.5 | 0.00 | 0.00 | 0.00 | 91 | 1009.0 |
| 20260506100547 | 76 | 0 | 0.0 | 3.5 | 0.00 | 0.00 | 0.00 | 91 | 1009.0 |
| 20260506100114 | 76 | 0 | 0.0 | 1.7 | 0.00 | 0.00 | 0.00 | 91 | 1008.9 |
| 20260506095548 | 76 | 0 | 0.0 | 0.9 | 0.00 | 0.00 | 0.00 | 91 | 1008.8 |
| 20260506095049 | 76 | 0 | 0.0 | 1.7 | 0.00 | 0.00 | 0.00 | 91 | 1008.8 |
| 20260506094551 | 76 | 0 | 0.0 | 1.7 | 0.00 | 0.00 | 0.00 | 91 | 1008.8 |
| 20260506094049 | 76 | 0 | 0.0 | 2.6 | 0.00 | 0.00 | 0.00 | 91 | 1008.6 |
| 20260506093547 | 76 | 24 | 0.0 | 2.6 | 0.00 | 0.00 | 0.00 | 91 | 1008.6 |
| 20260506093051 | 76 | 0 | 0.9 | 2.6 | 0.00 | 0.00 | 0.00 | 91 | 1008.5 |
| 20260506092547 | 76 | 22 | 0.0 | 1.7 | 0.00 | 0.00 | 0.00 | 91 | 1008.5 |
| 20260506092048 | 76 | 0 | 0.0 | 4.3 | 0.00 | 0.00 | 0.00 | 91 | 1008.5 |
| 20260506091555 | 76 | 0 | 0.0 | 4.3 | 0.00 | 0.00 | 0.00 | 91 | 1008.5 |
| 20260506091048 | 76 | 0 | 0.0 | 3.5 | 0.00 | 0.00 | 0.00 | 91 | 1008.3 |
| 20260506090547 | 76 | 0 | 0.0 | 5.2 | 0.00 | 0.00 | 0.00 | 90 | 1008.1 |
| 20260506090056 | 76 | 0 | 0.9 | 5.2 | 0.00 | 0.00 | 0.00 | 90 | 1008.2 |
| 20260506085547 | 76 | 37 | 0.0 | 7.0 | 0.00 | 0.00 | 0.00 | 90 | 1008.2 |
| 20260506085049 | 76 | 0 | 0.9 | 4.3 | 0.00 | 0.00 | 0.00 | 90 | 1008.2 |
| 20260506084619 | 76 | 31 | 0.0 | 3.5 | 0.00 | 0.00 | 0.00 | 90 | 1008.3 |
| 20260506084047 | 76 | 24 | 0.0 | 3.5 | 0.00 | 0.00 | 0.00 | 90 | 1008.4 |
| 20260506083547 | 76 | 0 | 0.0 | 2.6 | 0.00 | 0.00 | 0.00 | 90 | 1008.4 |
| 20260506083051 | 76 | 25 | 0.0 | 6.1 | 0.00 | 0.00 | 0.00 | 90 | 1008.3 |
| 20260506082546 | 76 | 25 | 0.9 | 6.1 | 0.00 | 0.00 | 0.00 | 90 | 1008.4 |
| 20260506082048 | 76 | 25 | 0.9 | 5.2 | 0.00 | 0.00 | 0.00 | 90 | 1008.2 |
| 20260506081555 | 76 | 26 | 1.7 | 5.2 | 0.00 | 0.00 | 0.00 | 90 | 1008.3 |
| 20260506081047 | 76 | 0 | 0.0 | 5.2 | 0.00 | 0.00 | 0.00 | 90 | 1008.4 |
| 20260506080548 | 76 | 23 | 0.9 | 5.2 | 0.00 | 0.00 | 0.00 | 90 | 1008.4 |
| 20260506073056 | 76 | 29 | 1.7 | 5.2 | 0.00 | 0.00 | 0.00 | 90 | 1008.7 |
| 20260506072547 | 76 | 19 | 0.9 | 5.2 | 0.00 | 0.00 | 0.00 | 90 | 1008.8 |
| 20260506072047 | 76 | 0 | 0.0 | 4.3 | 0.00 | 0.00 | 0.00 | 90 | 1008.8 |
| 20260506071552 | 76 | 47 | 0.9 | 4.3 | 0.00 | 0.00 | 0.00 | 89 | 1008.8 |
| 20260506071048 | 76 | 23 | 0.9 | 5.2 | 0.00 | 0.00 | 0.00 | 89 | 1008.8 |
| 20260506070548 | 76 | 26 | 0.9 | 5.2 | 0.00 | 0.00 | 0.00 | 89 | 1008.8 |
| 20260506070103 | 76 | 23 | 0.9 | 5.2 | 0.00 | 0.00 | 0.00 | 89 | 1008.9 |
| 20260506062047 | 76 | 22 | 1.7 | 5.2 | 0.00 | 0.00 | 0.00 | 89 | 1008.9 |
| 20260506061604 | 76 | 33 | 0.0 | 5.2 | 0.00 | 0.00 | 0.00 | 89 | 1008.9 |
| 20260506061047 | 76 | 0 | 1.7 | 5.2 | 0.00 | 0.00 | 0.00 | 89 | 1008.8 |
| 20260506060547 | 76 | 26 | 0.9 | 4.3 | 0.00 | 0.00 | 0.00 | 89 | 1008.8 |
| 20260506060104 | 76 | 29 | 0.9 | 4.3 | 0.00 | 0.00 | 0.00 | 90 | 1008.9 |
| 20260506051047 | 77 | 38 | 0.0 | 4.3 | 0.00 | 0.00 | 0.00 | 89 | 1008.9 |
| 20260506050547 | 77 | 0 | 0.9 | 5.2 | 0.00 | 0.00 | 0.00 | 88 | 1008.8 |
| 20260506045050 | 77 | 0 | 0.0 | 5.2 | 0.00 | 0.00 | 0.00 | 88 | 1008.9 |
| 20260506044702 | 77 | 0 | 0.9 | 5.2 | 0.00 | 0.00 | 0.00 | 88 | 1008.9 |
| 20260506044049 | 77 | 24 | 0.9 | 5.2 | 0.00 | 0.00 | 0.00 | 88 | 1008.9 |
| 20260506043548 | 77 | 0 | 0.0 | 4.3 | 0.00 | 0.00 | 0.00 | 88 | 1008.9 |
| 20260506043050 | 77 | 20 | 0.0 | 4.3 | 0.00 | 0.00 | 0.00 | 87 | 1008.9 |
| 20260506042548 | 77 | 0 | 0.9 | 3.5 | 0.00 | 0.00 | 0.00 | 87 | 1008.8 |
| 20260506042047 | 77 | 24 | 0.9 | 4.3 | 0.00 | 0.00 | 0.00 | 87 | 1008.7 |
| 20260506041600 | 78 | 0 | 0.9 | 4.3 | 0.00 | 0.00 | 0.00 | 87 | 1008.7 |
| 20260506041047 | 78 | 17 | 0.0 | 5.2 | 0.00 | 0.00 | 0.00 | 87 | 1008.7 |
| 20260506040550 | 78 | 0 | 0.9 | 5.2 | 0.00 | 0.00 | 0.00 | 87 | 1008.7 |
| 20260506040050 | 78 | 20 | 0.9 | 3.5 | 0.00 | 0.00 | 0.00 | 87 | 1008.7 |
| 20260506035547 | 78 | 0 | 0.0 | 3.5 | 0.00 | 0.00 | 0.00 | 86 | 1008.5 |
| 20260506035047 | 78 | 0 | 0.9 | 5.2 | 0.00 | 0.00 | 0.00 | 86 | 1008.4 |
| 20260506034623 | 78 | 22 | 0.9 | 5.2 | 0.00 | 0.00 | 0.00 | 86 | 1008.4 |
| 20260506034046 | 78 | 0 | 0.9 | 5.2 | 0.00 | 0.00 | 0.00 | 86 | 1008.4 |
| 20260506033546 | 78 | 0 | 0.0 | 3.5 | 0.00 | 0.00 | 0.00 | 86 | 1008.5 |
| 20260506033101 | 78 | 0 | 0.0 | 2.6 | 0.00 | 0.00 | 0.00 | 86 | 1008.3 |
| 20260506032547 | 78 | 23 | 0.0 | 3.5 | 0.00 | 0.00 | 0.00 | 86 | 1008.3 |
| 20260506032047 | 78 | 0 | 0.0 | 4.3 | 0.00 | 0.00 | 0.00 | 85 | 1008.1 |
| 20260506031553 | 78 | 0 | 0.9 | 4.3 | 0.00 | 0.00 | 0.00 | 85 | 1008.0 |
| 20260506031047 | 78 | 27 | 0.9 | 4.3 | 0.00 | 0.00 | 0.00 | 85 | 1008.0 |
| 20260506030546 | 79 | 21 | 0.9 | 4.3 | 0.00 | 0.00 | 0.00 | 85 | 1008.0 |
| 20260506030053 | 79 | 0 | 0.9 | 4.3 | 0.00 | 0.00 | 0.00 | 85 | 1007.9 |
| 20260506025547 | 79 | 0 | 0.0 | 4.3 | 0.00 | 0.00 | 0.00 | 84 | 1008.1 |
| 20260506025052 | 79 | 24 | 0.0 | 2.6 | 0.00 | 0.00 | 0.00 | 84 | 1007.9 |
| 20260506024549 | 79 | 0 | 0.0 | 6.1 | 0.00 | 0.00 | 0.00 | 84 | 1007.8 |
| 20260506024047 | 79 | 0 | 0.9 | 6.1 | 0.00 | 0.00 | 0.00 | 83 | 1007.6 |
| 20260506023547 | 79 | 0 | 0.0 | 5.2 | 0.00 | 0.00 | 0.00 | 83 | 1007.5 |
| 20260506023108 | 79 | 24 | 0.0 | 5.2 | 0.00 | 0.00 | 0.00 | 83 | 1007.4 |
| 20260506022547 | 80 | 0 | 0.0 | 2.6 | 0.00 | 0.00 | 0.00 | 82 | 1007.2 |
| 20260506022046 | 80 | 24 | 0.0 | 1.7 | 0.00 | 0.00 | 0.00 | 82 | 1007.2 |
| 20260506021548 | 80 | 0 | 0.0 | 2.6 | 0.00 | 0.00 | 0.00 | 81 | 1007.0 |
| 20260506021047 | 80 | 0 | 0.0 | 2.6 | 0.00 | 0.00 | 0.00 | 81 | 1006.8 |
| 20260506020547 | 80 | 0 | 0.0 | 2.6 | 0.00 | 0.00 | 0.00 | 81 | 1006.8 |
| 20260506020051 | 80 | 0 | 0.0 | 2.6 | 0.00 | 0.00 | 0.00 | 81 | 1006.7 |
| 20260506015547 | 80 | 0 | 0.0 | 2.6 | 0.00 | 0.00 | 0.00 | 81 | 1006.8 |
| 20260506015047 | 80 | 24 | 0.0 | 2.6 | 0.00 | 0.00 | 0.00 | 81 | 1006.8 |
| 20260506014548 | 80 | 0 | 0.0 | 2.6 | 0.00 | 0.00 | 0.00 | 81 | 1006.8 |
| 20260506014046 | 80 | 0 | 0.0 | 2.6 | 0.00 | 0.00 | 0.00 | 81 | 1006.7 |
| 20260506013547 | 80 | 0 | 0.0 | 1.7 | 0.00 | 0.00 | 0.00 | 81 | 1006.7 |
| 20260506013050 | 80 | 0 | 0.0 | 0.9 | 0.00 | 0.00 | 0.00 | 80 | 1006.7 |
| 20260506012547 | 81 | 0 | 0.0 | 0.9 | 0.00 | 0.00 | 0.00 | 80 | 1006.6 |
| 20260506012048 | 81 | 0 | 0.0 | 0.0 | 0.00 | 0.00 | 0.00 | 80 | 1006.6 |
| 20260506011608 | 81 | 0 | 0.0 | 1.7 | 0.00 | 0.00 | 0.00 | 80 | 1006.7 |
| 20260506011047 | 81 | 0 | 0.0 | 1.7 | 0.00 | 0.00 | 0.00 | 80 | 1006.7 |
| 20260506010548 | 81 | 0 | 0.0 | 0.9 | 0.00 | 0.00 | 0.00 | 79 | 1006.7 |
| 20260506010100 | 81 | 0 | 0.0 | 0.9 | 0.00 | 0.00 | 0.00 | 80 | 1006.6 |
| 20260506005546 | 82 | 0 | 0.0 | 0.9 | 0.00 | 0.00 | 0.00 | 79 | 1006.7 |
| 20260506005047 | 82 | 0 | 0.0 | 0.0 | 0.00 | 0.00 | 0.00 | 79 | 1006.7 |
| 20260506004616 | 82 | 0 | 0.0 | 1.7 | 0.00 | 0.00 | 0.00 | 78 | 1006.7 |
| 20260506004048 | 82 | 0 | 0.0 | 1.7 | 0.00 | 0.00 | 0.00 | 78 | 1006.7 |
| 20260506003548 | 82 | 0 | 0.0 | 2.6 | 0.00 | 0.00 | 0.00 | 78 | 1006.6 |
| 20260506003104 | 82 | 0 | 0.0 | 1.7 | 0.00 | 0.00 | 0.00 | 78 | 1006.6 |
| 20260506002547 | 82 | 0 | 0.0 | 1.7 | 0.00 | 0.00 | 0.00 | 78 | 1006.6 |
| 20260506002048 | 82 | 0 | 0.0 | 1.7 | 0.00 | 0.00 | 0.00 | 78 | 1006.6 |
| 20260506001557 | 82 | 0 | 0.0 | 0.9 | 0.00 | 0.00 | 0.00 | 77 | 1006.6 |
| 20260506001047 | 83 | 0 | 0.0 | 2.6 | 0.00 | 0.00 | 0.00 | 77 | 1006.5 |
| 20260506000548 | 83 | 0 | 0.0 | 2.6 | 0.00 | 0.00 | 0.00 | 77 | 1006.4 |
| 20260506000053 | 83 | 24 | 0.0 | 0.9 | 0.00 | 0.00 | 0.00 | 77 | 1006.4 |
| 20260505235546 | 83 | 0 | 0.0 | 5.2 | 0.00 | 0.01 | 0.00 | 76 | 1006.5 |
| 20260505235048 | 83 | 24 | 0.9 | 5.2 | 0.00 | 0.01 | 0.00 | 75 | 1006.4 |
| 20260505234617 | 83 | 18 | 0.0 | 3.5 | 0.00 | 0.01 | 0.00 | 75 | 1006.4 |
| 20260505234048 | 83 | 0 | 0.0 | 3.5 | 0.00 | 0.01 | 0.00 | 76 | 1006.3 |
| 20260505233546 | 83 | 19 | 0.9 | 4.3 | 0.00 | 0.01 | 0.00 | 75 | 1006.1 |
| 20260505233049 | 83 | 0 | 0.9 | 4.3 | 0.00 | 0.01 | 0.00 | 75 | 1006.2 |